TimeEST,TemperatureF,Dew PointF,Humidity,Sea Level PressureIn,VisibilityMPH,Wind Direction,Wind SpeedMPH,Gust SpeedMPH,PrecipitationIn,Events,Conditions,WindDirDegrees,DateUTC
12:15 AM,34.9,28.0,76,30.47,10.0,Calm,Calm,-,N/A,,Clear,0,2012-11-18 05:15:00
12:35 AM,37.4,28.6,70,30.48,10.0,Calm,Calm,-,N/A,,Clear,0,2012-11-18 05:35:00
12:55 AM,34.7,29.1,80,30.47,10.0,Calm,Calm,-,N/A,,Clear,0,2012-11-18 05:55:00
1:15 AM,32.4,27.9,83,30.48,10.0,Calm,Calm,-,N/A,,Clear,0,2012-11-18 06:15:00
1:35 AM,33.4,28.6,82,30.47,10.0,Calm,Calm,-,N/A,,Clear,0,2012-11-18 06:35:00
1:55 AM,31.5,26.2,81,30.48,10.0,Calm,Calm,-,N/A,,Clear,0,2012-11-18 06:55:00
2:15 AM,34.3,28.4,79,30.47,10.0,Calm,Calm,-,N/A,,Clear,0,2012-11-18 07:15:00
2:35 AM,34.2,28.8,81,30.47,10.0,Calm,Calm,-,N/A,,Clear,0,2012-11-18 07:35:00
2:55 AM,27.7,23.7,85,30.48,10.0,Calm,Calm,-,N/A,,Clear,0,2012-11-18 07:55:00
3:15 AM,26.8,23.9,89,30.47,10.0,Calm,Calm,-,N/A,,Clear,0,2012-11-18 08:15:00
3:35 AM,30.0,27.1,89,30.46,10.0,ENE,3.5,-,N/A,,Clear,70,2012-11-18 08:35:00
3:55 AM,29.8,26.8,88,30.46,10.0,Calm,Calm,-,N/A,,Clear,0,2012-11-18 08:55:00
4:15 AM,32.7,27.5,81,30.46,10.0,Calm,Calm,-,N/A,,Clear,0,2012-11-18 09:15:00
4:35 AM,33.1,27.9,81,30.46,10.0,Calm,Calm,-,N/A,,Clear,0,2012-11-18 09:35:00
5:15 AM,32.2,27.3,82,30.47,10.0,Calm,Calm,-,N/A,,Clear,0,2012-11-18 10:15:00
5:35 AM,33.1,27.0,78,30.47,10.0,Calm,Calm,-,N/A,,Clear,0,2012-11-18 10:35:00
5:55 AM,34.0,27.0,75,30.47,10.0,East,3.5,-,N/A,,Clear,80,2012-11-18 10:55:00
6:15 AM,33.8,27.1,77,30.47,10.0,ENE,3.5,-,N/A,,Clear,70,2012-11-18 11:15:00
6:35 AM,34.0,26.6,74,30.47,10.0,East,4.6,-,N/A,,Clear,80,2012-11-18 11:35:00
6:55 AM,32.2,25.9,78,30.48,10.0,East,3.5,-,N/A,,Clear,80,2012-11-18 11:55:00
7:10 AM,33.8,26.6,75,30.47,10.0,ENE,3.5,-,N/A,,Clear,70,2012-11-18 12:10:00
7:15 AM,33.1,26.4,77,30.47,10.0,ENE,4.6,-,N/A,,Clear,70,2012-11-18 12:15:00
7:50 AM,33.8,26.6,75,30.48,10.0,East,4.6,-,N/A,,Clear,80,2012-11-18 12:50:00
8:55 AM,37.4,28.4,70,30.49,10.0,ENE,3.5,-,N/A,,Clear,60,2012-11-18 13:55:00
9:50 AM,41.0,28.4,61,30.49,10.0,East,4.6,-,N/A,,Clear,90,2012-11-18 14:50:00
10:55 AM,48.2,28.4,46,30.48,10.0,Calm,Calm,-,N/A,,Clear,0,2012-11-18 15:55:00
12:50 PM,53.6,28.4,38,30.44,10.0,Calm,Calm,-,N/A,,Clear,0,2012-11-18 17:50:00
1:55 PM,53.6,26.6,35,30.42,10.0,Calm,Calm,-,N/A,,Clear,0,2012-11-18 18:55:00
2:55 PM,55.4,26.6,33,30.41,10.0,East,4.6,-,N/A,,Clear,90,2012-11-18 19:55:00
3:47 PM,55.4,28.4,36,30.40,10.0,East,3.5,-,N/A,,Clear,80,2012-11-18 20:47:00
4:50 PM,53.6,26.6,35,30.40,10.0,East,5.8,-,N/A,,Clear,90,2012-11-18 21:50:00
5:47 PM,48.2,26.6,43,30.41,10.0,Calm,Calm,-,N/A,,Clear,0,2012-11-18 22:47:00
6:47 PM,46.4,26.6,46,30.41,10.0,NE,3.5,-,N/A,,Clear,50,2012-11-18 23:47:00
8:15 PM,45.9,26.6,47,30.42,10.0,NE,3.5,-,N/A,,Clear,50,2012-11-19 01:15:00
8:35 PM,44.8,26.2,48,30.41,10.0,ENE,4.6,-,N/A,,Clear,70,2012-11-19 01:35:00
8:55 PM,45.5,26.1,47,30.41,10.0,ENE,3.5,-,N/A,,Clear,70,2012-11-19 01:55:00
9:15 PM,42.8,26.2,52,30.41,10.0,East,3.5,-,N/A,,Clear,100,2012-11-19 02:15:00
9:35 PM,43.2,26.4,52,30.41,10.0,East,4.6,-,N/A,,Clear,90,2012-11-19 02:35:00
9:55 PM,43.5,26.1,50,30.41,10.0,ENE,4.6,-,N/A,,Clear,60,2012-11-19 02:55:00
10:15 PM,41.4,26.1,55,30.41,10.0,Calm,Calm,-,N/A,,Clear,0,2012-11-19 03:15:00
10:35 PM,40.3,25.7,56,30.41,10.0,Calm,Calm,-,N/A,,Clear,0,2012-11-19 03:35:00
10:55 PM,34.9,26.2,71,30.41,10.0,Calm,Calm,-,N/A,,Clear,0,2012-11-19 03:55:00
11:35 PM,32.9,25.3,74,30.41,10.0,Calm,Calm,-,N/A,,Clear,0,2012-11-19 04:35:00
11:55 PM,32.0,25.7,78,30.40,10.0,Calm,Calm,-,N/A,,Clear,0,2012-11-19 04:55:00